Ontario, CA

4:04 PM PST on February 08, 2016 (GMT -0800)
Ontario International

Weather History for KONT - March, 2013

Change the Weather History Date:

Friday, March 22, 2013

  Actual Average Record
Temperature  
Mean Temperature 62 °F 59 °F  
Max Temperature 75 °F 71 °F 87 °F (2004)
Min Temperature 48 °F 47 °F 40 °F (2006)
Degree Days  
Heating Degree Days 3 6  
Month to date heating degree days 93 159  
Since 1 July heating degree days 1201 1316  
Cooling Degree Days 0 0  
Month to date cooling degree days 30 6  
Year to date cooling degree days 31 12  
Growing Degree Days 10 (Base 50)    
Moisture  
Dew Point 47 °F    
Average Humidity 64    
Maximum Humidity 93    
Minimum Humidity 35    
Precipitation  
Precipitation 0.00 in 0.04 in 0.79 in (2005)
Month to date precipitation 0.58 1.93  
Year to date precipitation 2.42 8.63  
Since 1 July precipitation 5.19  
Snow  
Snow 0.00 in - - ()
Month to date snowfall 0.0  
Year to date snowfall 0.0  
Since 1 July snowfall 0.0  
Snow Depth 0.00 in    
Sea Level Pressure  
Sea Level Pressure 29.83 in    
Wind  
Wind Speed 8 mph (WSW)    
Max Wind Speed 18 mph    
Max Gust Speed 81 mph    
Visibility 8 miles    
Events      
T = Trace of Precipitation, MM = Missing Value Source: NWS Daily Summary

Daily Weather History Graph

Daily Weather History Graph

Search for Another Location

Airport or City:

Trip Planner

Search our weather history database for the weather conditions in past years. The results will help you decide how hot, cold, wet, or windy it might be!

Date:

Astronomy

Mar. 22, 2013 Rise Set
Actual Time 6:50 AM PDT 7:03 PM PDT
Civil Twilight 6:25 AM PDT 7:28 PM PDT
Nautical Twilight 5:56 AM PDT 7:58 PM PDT
Astronomical Twilight 5:27 AM PDT 8:27 PM PDT
Moon 2:46 PM PDT (3/22) 3:42 AM PDT (3/22)
Length of Visible Light 13h 02m
Length of Day
12h 12m
Waxing Gibbous, 78% of the Moon is Illuminated
Mar 22
Waxing Gibbous
Mar 27
Full
Apr 2
Last Quarter
Apr 10
New
Apr 18
First Quarter

Hourly Weather History & Observations

Time (PDT) Temp. Dew Point Humidity Pressure Visibility Wind Dir Wind Speed Gust Speed Precip Events Conditions
12:53 AM 54.0 °F 48.9 °F 83% 29.81 in 10.0 mi Calm Calm - N/A   Clear
1:53 AM 53.1 °F 48.0 °F 83% 29.80 in 10.0 mi West 9.2 mph - N/A   Clear
2:53 AM 52.0 °F 48.0 °F 86% 29.80 in 10.0 mi West 5.8 mph - N/A   Clear
3:53 AM 51.1 °F 46.9 °F 86% 29.79 in 9.0 mi West 3.5 mph - N/A   Clear
4:53 AM 48.9 °F 46.0 °F 90% 29.79 in 5.0 mi West 5.8 mph - N/A   Partly Cloudy
5:46 AM 48.2 °F 46.4 °F 93% 29.82 in 5.0 mi NW 3.5 mph - N/A   Mostly Cloudy
5:53 AM 48.9 °F 46.9 °F 93% 29.81 in 3.0 mi NW 5.8 mph - N/A   Mostly Cloudy
6:53 AM 52.0 °F 48.9 °F 89% 29.83 in 3.0 mi SW 4.6 mph - N/A   Overcast
7:30 AM 51.8 °F 48.2 °F 88% 29.85 in 3.0 mi South 4.6 mph - N/A   Overcast
7:53 AM 52.0 °F 48.9 °F 89% 29.85 in 4.0 mi South 4.6 mph - N/A   Overcast
8:53 AM 53.1 °F 48.9 °F 86% 29.86 in 4.0 mi Calm Calm - N/A   Overcast
9:53 AM 57.0 °F 48.0 °F 72% 29.87 in 4.0 mi West 9.2 mph - N/A   Haze
10:00 AM 57.2 °F 48.2 °F 72% 29.88 in 5.0 mi WNW 5.8 mph - N/A   Haze
10:53 AM 61.0 °F 48.0 °F 62% 29.85 in 9.0 mi West 6.9 mph - N/A   Clear
11:53 AM 64.9 °F 46.9 °F 52% 29.84 in 10.0 mi West 10.4 mph - N/A   Clear
12:53 PM 69.8 °F 44.6 °F 40% 29.84 in 10.0 mi West 10.4 mph 18.4 mph N/A   Partly Cloudy
1:53 PM 72.0 °F 44.1 °F 37% 29.81 in 10.0 mi West 15.0 mph 24.2 mph N/A   Partly Cloudy
2:53 PM 73.0 °F 45.0 °F 37% 29.80 in 10.0 mi West 15.0 mph 23.0 mph N/A   Partly Cloudy
3:53 PM 73.0 °F 45.0 °F 37% 29.78 in 10.0 mi SW 13.8 mph 21.9 mph N/A   Partly Cloudy
4:53 PM 72.0 °F 48.9 °F 44% 29.79 in 10.0 mi West 15.0 mph 21.9 mph N/A   Partly Cloudy
5:53 PM 66.0 °F 48.0 °F 52% 29.80 in 10.0 mi SW 13.8 mph 19.6 mph N/A   Clear
6:53 PM 63.0 °F 48.9 °F 60% 29.82 in 10.0 mi SW 10.4 mph - N/A   Clear
7:53 PM 60.1 °F 50.0 °F 69% 29.85 in 10.0 mi West 8.1 mph - N/A   Clear
8:53 PM 57.9 °F 48.0 °F 70% 29.88 in 10.0 mi WSW 5.8 mph - N/A   Clear
9:53 PM 55.9 °F 46.9 °F 72% 29.89 in 10.0 mi West 5.8 mph - N/A   Clear
10:53 PM 55.0 °F 45.0 °F 69% 29.90 in 10.0 mi WSW 3.5 mph - N/A   Clear